Dewpoint
54 54 54 53 53 53 53 52 52 52 52 53 53 54 55 55 55 49 42 47 51 57 55 40 42 43 39 25 24 25 23 24 25 26 26 26 22 22 20 18 19 21 21 36 63
54 54 54 53 53 53 52 52 51 52 53 54 54 55 55 55 51 46 47 59 57 54 40 41 41 35 34 16 14 20 19 20 23 24 22 21 17 14 12 13 18 17 19 30 47
54 54 53 53 53 53 52 52 52 53 53 54 54 55 55 55 41 34 57 59 56 51 40 42 41 34 23 19 15 12 14 16 18 19 19 18 17 12 12 11 14 17 19 28 43
54 53 53 53 53 52 52 52 52 53 53 53 54 55 55 51 12 33 56 55 51 44 43 41 30 24 23 21 21 18 17 14 13 14 15 14 12 12 13 13 15 17 20 23 39
54 53 53 52 52 52 51 52 52 53 53 53 54 54 49 36 37 48 55 54 47 45 42 35 29 26 23 24 25 21 22 23 22 19 16 16 15 14 14 17 18 17 19 21 25
54 53 53 52 52 52 52 52 53 53 53 54 54 53 47 29 35 50 50 48 45 43 37 31 28 28 26 27 26 25 27 26 25 22 19 17 16 16 15 19 17 19 19 19 21
54 53 52 52 52 52 52 53 53 53 54 54 54 50 45 33 39 49 44 43 41 38 31 28 30 29 30 28 29 28 26 26 25 22 20 20 17 16 18 17 14 14 13 18 20
54 53 52 52 52 52 52 53 53 53 54 55 54 49 42 41 39 38 42 40 35 34 28 28 30 30 30 31 29 27 26 23 23 22 21 20 16 18 18 16 15 14 12 12 17
53 53 52 52 52 52 53 53 53 53 55 54 50 47 41 47 39 37 34 32 33 26 27 26 29 29 31 29 27 25 23 23 23 24 21 18 17 18 19 17 16 15 13 12 12
53 53 52 52 52 52 53 53 52 52 53 51 48 41 39 31 28 31 27 27 26 26 25 26 25 27 28 28 24 26 25 29 31 30 30 27 17 19 22 20 19 17 16 14 14
53 52 52 52 53 52 50 43 28 34 48 39 35 37 32 28 25 24 28 27 28 28 22 24 21 21 25 27 28 29 30 32 33 33 31 28 24 20 21 21 21 21 22 19 16
53 52 52 52 52 52 47 39 35 24 24 31 33 32 27 27 23 23 26 22 25 23 25 23 21 23 24 25 27 29 29 31 32 31 28 25 21 23 22 22 22 22 22 21 19
52 52 52 52 51 48 39 39 38 30 26 27 29 25 23 22 21 22 25 24 23 22 22 22 22 25 26 26 26 28 30 30 28 28 27 26 25 23 24 25 25 24 24 24 21
52 51 51 51 42 41 39 32 32 35 31 33 30 26 23 23 24 23 23 24 24 24 26 25 26 26 26 25 27 25 28 29 29 28 25 28 24 25 25 25 25 25 25 25 22
51 51 51 50 39 36 31 34 34 39 18 21 16 21 17 17 18 30 29 28 27 27 28 27 27 27 27 27 28 26 28 27 26 28 26 25 26 24 25 24 25 26 26 26 25
51 51 50 46 44 41 40 35 37 32 20 17 17 17 19 24 28 29 31 33 31 30 29 28 32 32 32 31 31 30 29 28 28 27 25 25 24 21 20 22 23 25 26 26 25
50 50 49 44 31 37 35 36 30 25 19 16 17 21 21 24 27 29 29 27 28 28 30 33 33 33 31 28 35 36 35 28 23 21 22 24 24 24 26 26 27 25 26 25 25
49 49 48 42 38 38 37 33 26 17 18 19 21 22 21 26 28 30 29 28 38 37 34 29 28 32 32 29 31 36 36 30 22 21 22 28 25 27 32 30 30 30 30 30 30
48 42 44 43 42 37 33 27 19 22 21 23 22 22 22 23 27 29 28 32 38 38 33 32 31 34 33 30 30 34 32 38 32 34 30 27 26 27 27 29 32 32 31 30 31
43 42 42 43 35 35 30 31 23 24 23 24 22 24 22 23 26 27 29 32 36 39 38 36 30 31 31 33 30 29 32 31 34 24 22 24 25 26 30 32 35 35 37 37 28
42 39 38 33 36 32 26 25 25 26 25 25 25 25 25 25 26 29 29 31 38 38 39 37 36 29 32 31 27 28 34 34 35 33 24 20 21 34 31 35 36 38 38 39 35
41 32 38 33 28 30 26 29 33 29 27 26 28 27 26 26 30 31 31 32 40 39 35 36 36 30 27 28 29 28 28 34 30 25 33 32 29 34 38 39 39 40 40 41 44
38 38 41 34 26 29 31 31 32 29 23 25 24 25 27 27 27 34 31 34 38 38 38 38 33 28 27 27 35 33 33 34 36 35 29 28 27 36 35 36 39 39 42 44 45
39 33 33 34 33 32 31 31 31 28 24 21 19 28 27 27 28 28 30 35 40 39 41 41 33 31 27 26 31 32 32 32 33 31 28 30 31 33 33 34 37 41 44 44 45
39 31 35 30 32 34 34 32 27 27 25 23 25 27 31 28 30 30 32 32 34 37 39 39 33 34 33 32 32 32 32 33 34 33 30 29 30 32 33 33 39 39 44 44 43
35 36 37 36 35 33 33 27 29 27 26 25 26 33 32 29 30 32 31 32 35 38 39 39 33 35 33 32 30 30 36 36 37 36 33 31 31 39 37 37 43 44 47 44 44
41 41 39 36 34 31 29 31 31 29 28 27 33 32 32 33 35 35 36 36 37 37 34 32 32 32 28 30 30 31 32 33 34 35 38 34 37 40 40 44 44 45 47 48 48
Lifted_Index
15 15 15 15 15 15 16 16 16 16 16 15 15 15 15 15 15 15 15 13 13 13 13 12 12 11 11 12 12 11 10 9 9 10 9 9 8 8 9 8 7 5 2 -2 -5
15 15 15 15 15 15 16 16 16 16 16 15 15 15 15 15 15 14 13 13 13 14 13 12 12 12 12 12 12 12 11 10 11 11 10 9 8 8 8 8 7 5 2 -2 -4
16 16 16 16 16 16 16 16 16 16 16 15 15 15 15 15 14 13 12 12 13 14 13 12 12 12 12 12 11 11 11 11 11 12 11 10 9 8 8 8 8 7 4 1 -2
16 16 16 16 16 16 16 16 16 16 16 16 15 15 15 14 13 12 11 12 13 13 12 11 11 11 10 10 9 9 9 10 10 11 11 11 10 9 9 8 9 8 7 5 2
16 16 16 16 16 16 16 17 16 16 16 16 15 15 15 14 13 12 11 11 12 11 11 10 10 9 8 7 6 6 6 7 7 8 9 10 10 10 9 9 9 9 8 7 6
16 16 16 16 16 16 17 17 16 16 16 15 15 14 14 14 12 11 10 11 10 10 9 8 7 6 5 4 4 4 4 4 5 5 6 7 8 9 9 8 8 8 7 7 7
16 16 16 16 16 17 17 16 16 15 15 14 13 13 12 12 11 10 10 10 10 9 7 6 5 4 4 3 3 3 3 3 4 4 4 5 6 7 8 7 7 7 7 6 6
16 16 16 16 16 16 16 15 14 14 13 12 11 11 10 10 10 10 10 9 8 7 6 5 5 4 4 4 3 3 3 3 3 3 3 3 4 6 7 7 7 7 7 6 6
16 16 16 16 15 15 14 13 13 12 11 10 10 9 9 9 9 9 9 8 7 6 5 5 5 4 4 4 3 3 3 3 3 2 2 2 3 4 5 6 6 7 7 6 6
16 16 16 15 14 14 13 12 12 11 10 9 9 8 9 9 9 8 8 6 6 5 5 5 4 4 4 3 3 3 2 2 2 1 1 1 2 3 4 4 5 6 7 6 6
16 16 16 15 14 13 12 12 11 10 8 8 8 8 8 8 8 7 6 5 5 5 4 4 4 4 4 3 3 2 2 2 1 1 0 1 1 2 3 3 4 5 6 7 6
16 16 16 15 14 12 11 11 10 9 8 7 8 8 8 8 7 6 5 5 4 4 4 4 4 4 4 3 3 2 2 2 1 0 0 0 1 2 2 2 3 4 5 6 6
16 16 16 15 13 12 11 10 10 8 7 6 7 8 8 8 6 5 4 4 4 4 4 4 4 4 4 3 3 2 2 2 1 1 0 0 1 2 2 2 2 2 4 5 6
16 16 15 14 12 11 10 10 9 7 5 6 7 7 8 7 6 4 3 3 3 3 3 3 3 3 3 3 3 2 2 2 2 1 1 1 1 2 2 2 2 2 3 4 5
15 15 14 13 11 10 9 8 7 5 4 5 6 7 7 6 4 3 2 2 2 3 3 3 3 3 3 2 2 2 2 2 2 2 1 1 1 1 2 2 2 2 2 3 4
14 13 12 11 10 9 8 7 5 4 4 5 6 6 5 4 3 2 2 2 2 3 3 3 3 2 2 2 2 1 1 1 2 1 2 2 2 2 2 2 2 2 2 2 3
12 11 10 10 9 8 7 5 4 4 5 6 6 6 5 4 3 3 3 2 2 3 3 3 2 2 2 2 1 1 1 1 1 1 1 2 2 2 2 1 2 2 2 2 2
10 9 9 8 8 7 6 5 4 5 6 7 7 6 5 5 4 3 3 3 2 3 3 3 3 2 2 2 2 1 1 1 0 0 1 2 2 2 1 1 1 1 1 1 2
9 8 7 7 7 7 6 5 5 6 7 7 7 6 5 5 4 4 4 3 3 3 4 4 3 3 3 3 2 2 2 1 1 1 1 2 2 2 1 1 1 1 1 1 1
8 7 7 7 8 7 6 6 6 6 6 6 6 6 6 5 4 4 4 3 3 3 4 4 4 3 3 3 3 3 2 2 1 1 1 1 2 1 1 1 0 0 -0 0 0
7 7 7 8 8 7 7 6 6 6 6 6 6 6 6 6 5 4 3 3 3 4 4 4 4 3 3 3 3 2 2 1 1 1 1 1 1 1 0 0 0 -0 -0 -1 -1
6 7 7 8 8 7 7 7 6 6 6 6 6 6 6 6 5 4 3 3 4 4 4 4 4 3 2 2 2 2 2 2 2 2 1 1 1 1 0 0 -0 -0 -0 -1 -1
6 6 7 8 8 8 7 7 6 6 7 7 7 6 6 5 4 4 4 4 4 4 4 4 3 3 2 2 2 2 2 2 2 2 2 2 2 1 1 0 -0 -0 -0 -1 -1
6 6 7 8 8 8 7 7 6 7 7 7 7 6 6 5 4 4 4 4 4 4 4 3 3 2 2 2 2 2 1 2 2 2 2 2 2 1 1 0 0 -0 -0 -0 -1
6 6 6 7 8 8 8 7 7 7 7 8 7 6 6 5 5 5 5 4 4 4 3 3 2 2 2 2 2 1 1 1 1 2 2 2 2 1 1 0 -0 -1 -1 -0 -0
6 6 6 6 7 7 7 7 7 7 8 8 7 6 6 6 5 5 4 3 3 3 3 3 2 2 2 2 2 1 1 1 1 1 2 2 1 1 0 -0 -0 -0 -0 -0 0
7 7 6 6 6 7 7 7 7 8 8 8 7 6 6 6 5 5 4 3 2 2 2 2 2 2 2 2 2 1 1 1 1 1 1 1 1 0 -0 -1 -0 0 0 0 0